Location: Austin
(30.3000°N, 97.7500°W)
Time: 01:30:11
(UTC-05:00)

Cosmos 2278 Rocket - Pass Details

Date: 15 May 2024
Orbit: 839 x 846 km, 71.0° (Epoch: 29 May)

Event Time Altitude Azimuth Distance (km) Brightness Sun altitude
Rises 21:38:42 0° 352° (N) 3,406 6.0 -16.0°
Reaches altitude 10° 21:41:26 10° 2° (N) 2,467 5.1 -16.5°
Maximum altitude 21:46:25 31° 64° (ENE) 1,431 3.1 -17.4°
Enters shadow 21:48:16 26° 98° (E) 1,611 3.2 -17.7°
